DW0529 Weather Reports


Display with metric or nautical units.
time (UTC)temp
F
wind
direction
speed
MPH
gust
MPH
rain 1hr
in
rain 24hr
in
rain mn
in
humidity
%
barometer
mb
20260905135157 61 0 0.0 0.0 0.00 0.00 0.00 96 969.1
20260905134221 61 0 0.0 0.0 0.00 0.00 0.00 96 969.0
20260905133216 61 0 0.0 0.0 0.00 0.00 0.00 96 968.7
20260905132216 61 0 0.0 0.0 0.00 0.00 0.00 96 968.4
20260905131210 61 0 0.0 0.0 0.00 0.00 0.00 96 968.4
20260905130142 61 0 0.0 0.0 0.00 0.00 0.00 95 968.3
20260905125206 62 0 0.0 0.0 0.00 0.00 0.00 96 968.5
20260905124147 61 0 0.0 0.0 0.00 0.00 0.00 95 968.5
20260905123135 61 0 0.0 0.0 0.00 0.00 0.00 95 968.4
20260905122121 61 0 0.0 0.0 0.00 0.00 0.00 95 968.5
20260905120000 62 196 0.0 0.0 0.00 0.00 0.00 95 968.5
20260905113845 62 0 0.0 0.0 0.00 0.00 0.00 94 968.6
20260905111709 62 0 0.0 0.0 0.00 0.00 0.00 94 968.6
20260905110644 62 0 0.0 0.0 0.00 0.00 0.00 93 968.6
20260905104508 62 196 0.0 0.0 0.00 0.00 0.00 93 968.7
20260905103450 62 0 0.0 0.0 0.00 0.00 0.00 92 968.7
20260905102458 63 0 0.0 0.0 0.00 0.00 0.00 91 968.8
20260905101437 63 0 0.0 0.0 0.00 0.00 0.00 91 968.8
20260905100406 63 0 0.0 0.0 0.00 0.00 0.00 90 968.8
20260905095339 63 0 0.0 0.0 0.00 0.00 0.00 90 968.9
20260905094404 63 0 0.0 0.0 0.00 0.00 0.00 88 968.8
20260905093424 63 0 0.0 0.0 0.00 0.00 0.00 87 968.8
20260905091315 63 196 0.0 0.0 0.00 0.00 0.00 85 968.9
20260905090309 63 196 0.0 0.0 0.00 0.00 0.00 84 969.0
20260905085237 63 196 0.0 0.0 0.00 0.00 0.00 83 969.0
20260905084233 63 196 0.0 0.0 0.00 0.00 0.00 82 969.1
20260905083237 64 196 0.0 0.0 0.00 0.00 0.00 82 969.0
20260905082233 64 196 0.0 0.0 0.00 0.00 0.00 81 969.1
20260905081213 64 196 0.0 0.0 0.00 0.00 0.00 82 969.2
20260905080157 65 196 0.0 0.0 0.00 0.00 0.00 81 969.2
20260905074012 65 196 0.0 0.0 0.00 0.00 0.00 81 969.0
20260905072951 65 196 0.0 0.0 0.00 0.00 0.00 80 969.2
20260905071957 65 196 0.0 0.0 0.00 0.00 0.00 79 969.2
20260905065850 65 196 0.0 0.0 0.00 0.00 0.00 79 969.2
20260905064834 65 196 0.0 0.0 0.00 0.00 0.00 79 969.0
20260905063813 65 196 0.0 0.0 0.00 0.00 0.00 78 969.1
20260905062801 65 196 0.0 0.0 0.00 0.00 0.00 79 969.0
20260905061734 65 196 0.0 0.0 0.00 0.00 0.00 79 969.0
20260905060734 65 196 0.0 0.0 0.00 0.00 0.00 79 969.1
20260905055725 65 196 0.0 0.0 0.00 0.00 0.00 77 969.1
20260905054658 66 196 0.0 0.0 0.00 0.00 0.00 76 969.0
20260905052607 67 196 0.0 0.0 0.00 0.00 0.00 72 969.0
20260905051622 68 196 0.0 0.0 0.00 0.00 0.00 70 969.0
20260905050603 68 196 0.0 0.0 0.00 0.00 0.00 70 969.0
20260905045552 68 196 0.0 1.0 0.00 0.00 0.00 70 968.9
20260905043445 68 196 0.0 0.0 0.00 0.00 0.00 69 968.7
20260905042500 68 196 0.0 0.0 0.00 0.00 0.00 68 968.7
20260905041507 68 196 0.0 0.0 0.00 0.00 0.00 67 968.6
20260905035356 69 196 0.0 0.0 0.00 0.00 0.00 59 968.5
20260905034352 69 196 0.0 0.0 0.00 0.00 0.00 55 968.4
20260905033351 69 196 0.0 0.0 0.00 0.00 0.00 52 968.2
20260905032402 68 196 0.0 0.0 0.00 0.00 0.00 48 968.1
20260905031351 68 196 0.0 2.0 0.00 0.00 0.00 54 968.1
20260905030346 67 196 0.0 0.0 0.00 0.00 0.00 63 968.0
20260905025334 67 196 0.0 0.0 0.00 0.00 0.00 73 967.9
20260905024354 67 196 0.0 0.0 0.00 0.00 0.00 72 967.9
20260905023321 67 0 0.0 0.0 0.00 0.00 0.00 71 967.9
20260905021156 68 196 0.0 2.0 0.00 0.00 0.00 75 967.9
20260905020210 69 0 0.0 0.0 0.00 0.00 0.00 72 968.0
20260905015208 70 0 1.0 3.0 0.00 0.00 0.00 70 968.1
20260905014151 71 0 0.0 3.0 0.00 0.00 0.00 69 968.1
20260905013132 71 196 1.0 4.0 0.00 0.00 0.00 68 968.1
20260905012109 72 218 1.0 6.0 0.00 0.00 0.00 65 968.2
20260905011133 73 150 0.0 6.0 0.00 0.00 0.00 62 968.3
20260905010113 74 175 1.0 5.0 0.00 0.00 0.00 58 968.4
20260905005116 75 141 1.0 5.0 0.00 0.00 0.00 53 968.3
20260905004104 75 208 1.0 8.0 0.00 0.00 0.00 49 968.3
20260905003030 76 222 1.0 8.0 0.00 0.00 0.00 46 968.3
20260905000859 76 220 1.0 6.0 0.00 0.00 0.00 46 968.2
20260904235859 77 185 1.0 6.0 0.00 0.00 0.00 48 968.1
20260904234843 77 232 1.0 8.0 0.00 0.00 0.00 45 968.1
20260904232650 77 236 1.0 8.0 0.00 0.00 0.00 45 968.3
20260904231640 77 230 1.0 8.0 0.00 0.00 0.00 48 968.1
20260904230638 77 198 2.0 7.0 0.00 0.00 0.00 50 968.3
20260904225639 77 234 2.0 7.0 0.00 0.00 0.00 50 968.4
20260904223548 77 205 2.0 8.0 0.00 0.00 0.00 52 968.4
20260904222546 77 215 2.0 9.0 0.00 0.00 0.00 53 968.5
20260904221554 77 239 2.0 9.0 0.00 0.00 0.00 49 968.4
20260904215458 77 267 1.0 7.0 0.00 0.00 0.00 54 968.5
20260904214505 77 242 2.0 7.0 0.00 0.00 0.00 54 968.7
20260904213517 77 252 2.0 8.0 0.00 0.00 0.00 56 968.7
20260904212542 77 225 2.0 10.0 0.00 0.00 0.00 55 968.6
20260904211523 77 215 2.0 10.0 0.00 0.00 0.00 54 968.8
20260904210531 77 249 2.0 8.0 0.00 0.00 0.00 53 968.7
20260904205544 78 232 1.0 8.0 0.00 0.00 0.00 52 968.6
20260904204540 78 205 2.0 8.0 0.00 0.00 0.00 52 968.6
20260904203602 79 187 2.0 6.0 0.00 0.00 0.00 49 968.5
20260904202547 78 175 2.0 6.0 0.00 0.00 0.00 49 968.6
20260904201554 77 202 1.0 6.0 0.00 0.00 0.00 52 968.6
20260904195429 77 82 1.0 6.0 0.00 0.00 0.00 51 968.8
20260904194427 78 178 1.0 6.0 0.00 0.00 0.00 48 968.8
20260904193444 78 184 0.0 6.0 0.00 0.00 0.00 49 968.9
20260904192448 77 204 1.0 4.0 0.00 0.00 0.00 51 969.0
20260904191425 76 225 1.0 4.0 0.00 0.00 0.00 54 969.2
20260904190407 75 225 1.0 4.0 0.00 0.00 0.00 57 969.4
20260904185420 74 227 1.0 6.0 0.00 0.00 0.00 58 969.4
20260904184409 74 236 1.0 6.0 0.00 0.00 0.00 59 969.6
20260904183401 73 223 0.0 6.0 0.00 0.00 0.00 61 969.6
20260904182338 73 227 1.0 6.0 0.00 0.00 0.00 62 969.6
20260904181350 73 251 1.0 5.0 0.00 0.00 0.00 60 969.7
20260904180330 73 205 1.0 5.0 0.00 0.00 0.00 62 969.7
20260904174128 71 194 1.0 5.0 0.00 0.00 0.00 65 969.8
20260904173056 70 171 1.0 5.0 0.00 0.00 0.00 66 969.7
20260904172035 70 229 1.0 5.0 0.00 0.00 0.00 65 969.6
20260904171004 71 224 0.0 5.0 0.00 0.00 0.00 63 969.6
20260904170004 71 180 0.0 4.0 0.00 0.00 0.00 63 969.5
20260904164934 70 221 0.0 1.0 0.00 0.00 0.00 66 969.3
20260904162828 68 221 0.0 3.0 0.00 0.00 0.00 72 969.2
20260904161822 67 218 0.0 0.0 0.00 0.00 0.00 78 969.3
20260904160822 66 218 0.0 1.0 0.00 0.00 0.00 80 969.1
20260904155825 65 218 0.0 3.0 0.00 0.00 0.00 80 969.1
20260904154754 64 200 0.0 3.0 0.00 0.00 0.00 87 969.1
20260904153817 63 200 0.0 0.0 0.00 0.00 0.00 91 969.1
20260904152748 62 200 0.0 0.0 0.00 0.00 0.00 95 969.1
20260904151737 62 200 0.0 0.0 0.00 0.00 0.00 95 969.0
20260904150743 62 200 0.0 0.0 0.00 0.00 0.00 96 969.0
20260904145746 61 200 0.0 0.0 0.00 0.00 0.00 96 968.9
20260904144733 61 200 0.0 0.0 0.00 0.00 0.00 97 968.7
20260904143739 61 200 0.0 0.0 0.00 0.00 0.00 96 968.7
20260904142738 60 200 0.0 0.0 0.00 0.00 0.00 96 968.5
20260904141708 60 200 0.0 0.0 0.00 0.00 0.00 96 968.4
20260904140705 60 200 0.0 0.0 0.00 0.00 0.00 96 968.3